Back to catalog

STARLINK-34013

AliveCommunicationsVLEO
NORAD 63871·PAYLOAD·🇺🇸 United States

Launched May 10, 2025 from Vandenberg Space Force Base

Loading…

Next Passes (next 24 hours)

TLE

FreshSource: CelesTrak SupGP

Epoch: Sep 14, 2026, 15:12 UTC

1 63871C 25094H   26257.63381944  .00003156  00000+0  10977-3 0  2573
2 63871  69.9992 116.3589 0003423 262.7215 256.9778 15.29580304    13

Track STARLINK-34013 in real time with AllMySat

Download on the App Store